SCP
0 0 1 1 1 1 1 1 1 0 0 0 0 0 0 0 0 0 0 0 0 0 0 0 0 0 0 0 0 0 0 0 0 0 0 0 0 0 0 0 0 0 0
0 0 1 1 1 1 1 1 1 0 0 0 0 0 0 0 0 0 0 0 0 0 0 0 0 0 0 0 0 0 0 0 0 0 0 0 0 0 0 0 0 0 0
0 0 0 1 1 1 1 1 1 0 0 0 0 0 0 0 0 0 0 0 0 0 0 0 0 0 0 0 0 0 0 0 0 0 0 0 0 0 0 0 0 0 0
0 0 0 1 1 1 1 1 1 0 0 0 0 0 0 0 0 0 0 0 0 0 0 0 0 0 0 0 0 0 0 0 0 0 0 0 0 0 0 0 0 0 0
0 0 0 1 1 1 1 1 1 1 0 0 0 0 0 0 0 0 0 0 0 0 0 0 0 0 0 0 0 0 0 0 0 0 0 0 0 0 0 0 0 0 0
0 0 0 1 1 1 1 1 1 1 1 1 1 0 0 0 0 0 0 0 0 0 0 0 0 0 0 0 0 0 0 0 0 0 0 0 0 0 0 0 0 0 0
1 1 1 1 1 1 1 1 1 1 1 1 1 1 1 0 0 0 0 0 0 0 0 0 0 0 0 0 0 0 0 0 0 0 0 0 0 0 0 0 0 0 0
1 1 1 1 1 1 1 1 1 1 1 1 1 1 1 1 0 0 0 0 0 0 0 0 0 0 0 0 0 0 0 0 0 0 0 0 0 0 0 0 0 0 0
1 1 1 1 1 1 1 1 1 1 1 1 1 1 1 1 1 1 0 0 0 0 0 0 0 0 0 0 0 0 0 0 0 0 0 0 0 0 0 0 0 0 0
1 1 1 1 1 1 1 1 1 1 1 1 1 1 1 1 1 1 1 1 0 1 1 0 0 0 0 0 0 0 0 0 0 0 0 0 0 0 0 0 0 0 0
1 1 1 1 1 1 1 1 1 1 1 1 1 1 1 1 1 1 1 1 1 1 1 1 0 0 0 0 0 0 0 0 0 0 0 0 0 0 0 0 0 0 0
1 1 1 1 1 1 1 1 1 1 1 1 1 1 1 1 1 1 1 1 1 1 1 0 0 0 0 0 0 0 0 0 0 0 0 0 0 0 0 0 0 0 0
1 1 1 1 1 1 1 1 1 1 1 1 1 1 1 1 1 1 1 1 1 1 0 0 0 0 0 0 0 0 0 0 0 0 0 0 0 0 0 0 0 0 0
1 1 1 1 1 1 1 1 1 1 1 1 1 1 1 1 1 1 1 1 1 1 0 0 0 0 0 0 0 0 0 0 0 0 0 0 0 0 0 0 0 0 0
1 1 1 1 1 1 1 1 1 1 1 1 1 1 1 1 1 1 1 1 1 0 0 0 0 0 0 0 0 0 0 0 0 0 0 0 0 0 0 0 0 0 0
1 1 1 1 1 1 1 1 1 1 1 1 1 1 1 1 1 1 1 1 1 0 0 0 0 0 0 0 0 0 0 0 0 0 0 0 0 0 0 0 0 0 0
1 1 1 1 1 1 1 1 1 1 1 1 1 1 1 1 1 1 1 1 1 1 0 0 0 0 0 0 0 0 0 0 0 0 0 0 0 0 0 0 0 0 0
1 1 1 1 1 1 1 1 1 1 1 1 1 1 1 1 1 1 1 1 1 1 1 0 0 0 0 0 0 0 0 0 0 0 0 0 0 0 0 0 0 0 0
1 1 1 1 1 1 1 1 1 1 1 1 1 1 1 1 1 1 1 1 1 1 1 0 0 0 0 0 0 0 0 0 0 0 0 0 0 0 0 0 0 0 0
1 1 1 1 1 1 1 1 1 1 1 1 1 1 1 1 1 1 1 1 1 1 1 0 0 0 0 0 0 0 0 0 0 0 0 0 0 0 0 0 0 0 0
2 1 1 1 1 1 1 1 1 1 1 1 1 1 1 1 1 1 1 1 1 1 0 0 0 0 0 0 0 0 0 0 0 0 0 0 0 0 0 0 0 0 0
2 1 1 1 1 1 1 1 1 1 1 1 1 1 1 1 1 1 1 1 1 0 0 0 0 0 0 0 0 0 0 0 0 0 0 0 0 0 0 0 0 0 0
2 1 1 1 1 1 1 1 1 0 0 0 1 1 1 1 1 1 1 1 0 0 0 0 0 0 0 0 0 0 0 0 0 0 0 0 0 0 0 0 0 0 0
2 1 1 1 1 1 1 0 0 0 0 0 0 0 0 0 0 1 0 0 0 0 0 0 0 0 0 0 0 0 0 0 0 0 0 0 0 0 0 0 0 0 0
1 1 1 1 1 1 0 0 0 0 0 0 0 0 0 0 0 0 0 0 0 0 0 0 0 0 0 0 0 0 0 0 0 0 0 0 0 0 0 0 0 0 0
1 1 1 1 1 0 0 0 0 0 0 0 0 0 0 0 0 0 0 0 0 0 0 0 0 0 0 0 0 0 0 0 0 0 0 0 0 0 0 0 0 0 0
Wind_Speed
9 10 10 10 9 8 7 7 7 5 4 2 2 2 2 1 1 2 3 3 3 3 3 2 2 2 1 1 1 0 1 1 0 1 2 3 1 1 2 3 3 4 5
9 10 9 9 9 9 8 7 7 6 5 3 3 2 2 2 2 1 2 3 3 3 3 3 2 2 1 1 0 0 0 1 0 1 1 2 4 3 1 1 3 4 3
14 13 11 10 9 9 9 8 7 6 5 4 3 2 1 1 1 1 1 2 3 3 3 3 3 2 2 2 1 1 1 1 1 1 2 2 2 2 2 1 1 2 3
12 12 12 11 11 10 9 7 7 6 5 5 4 4 3 3 3 2 2 2 3 3 3 3 3 3 2 2 2 2 1 1 1 1 1 2 3 2 1 2 2 1 1
13 14 13 13 12 11 9 8 7 6 6 5 6 5 4 3 2 2 2 2 2 3 3 3 3 3 2 2 2 1 1 1 1 1 1 0 0 2 2 1 2 2 1
13 12 11 10 9 9 9 8 8 7 6 6 6 6 6 4 3 3 3 2 2 2 3 3 3 3 2 3 2 2 1 1 1 1 1 1 1 1 2 2 1 1 1
12 11 11 10 10 10 10 9 9 8 7 7 6 6 6 6 5 4 4 3 2 2 3 3 3 3 3 3 2 2 1 1 1 1 1 1 1 1 2 2 1 1 1
11 12 13 12 12 11 10 10 10 8 7 7 6 5 5 4 3 4 4 4 3 3 3 3 3 3 3 3 2 1 2 1 1 1 1 1 1 1 1 2 2 1 0
11 11 12 11 11 11 11 11 10 8 7 7 6 5 5 5 4 4 3 3 3 3 3 3 3 3 3 2 2 1 1 1 1 0 0 0 1 1 0 1 2 3 1
9 10 10 11 10 10 9 9 9 8 7 6 6 5 5 5 4 3 3 3 3 3 3 3 3 3 2 2 2 1 1 1 0 0 1 1 1 1 0 0 1 2 3
7 8 7 7 7 7 7 7 7 6 6 6 5 5 4 4 4 4 4 4 3 3 3 3 3 3 2 2 2 2 1 1 0 1 1 1 1 1 1 1 1 1 2
5 6 7 6 6 6 7 7 6 6 6 6 5 5 4 4 3 3 3 3 3 2 2 2 3 3 2 2 3 2 1 2 1 1 1 1 1 2 1 1 1 1 1
6 6 7 7 5 5 6 5 5 5 5 5 5 4 3 3 3 3 3 2 2 2 2 2 2 2 2 3 3 3 2 2 1 1 1 1 2 2 1 1 1 1 2
7 7 6 5 5 4 5 5 4 4 4 5 5 4 3 3 3 3 2 2 2 2 2 2 2 3 3 3 2 2 2 2 1 1 1 1 1 1 1 2 1 2 2
6 7 6 5 5 5 5 5 4 3 3 4 4 4 3 3 3 3 3 3 3 2 2 2 2 3 3 2 3 3 3 3 2 2 2 3 4 4 2 2 2 2 2
6 6 6 6 5 5 5 5 4 4 4 4 4 4 3 3 3 3 3 3 3 2 3 3 3 3 2 3 5 4 3 3 3 2 2 3 4 5 6 5 5 4 3
7 7 6 5 5 5 5 5 5 5 5 4 4 4 4 4 3 3 4 3 3 3 4 3 4 3 3 3 3 5 4 3 2 2 2 2 3 3 3 5 7 6 5
7 7 6 6 5 4 4 5 5 5 5 4 3 3 4 4 3 3 3 3 3 3 3 3 3 3 4 4 4 5 4 3 2 2 2 3 2 2 3 4 4 4 3
7 6 5 6 6 6 6 7 6 5 5 4 3 3 3 4 4 3 3 3 3 3 4 3 3 4 3 4 4 5 4 4 3 3 3 3 2 3 4 4 4 3 3
7 6 6 7 7 5 6 7 5 5 4 3 3 3 3 3 3 3 4 4 4 4 5 5 4 4 3 4 5 6 4 4 3 3 3 4 4 4 4 4 3 2 1
9 8 8 7 5 5 7 7 6 4 3 3 4 3 3 3 3 3 3 4 5 5 5 5 4 4 4 4 5 5 4 4 3 3 2 2 4 5 4 3 2 2 1
9 8 8 6 5 5 7 7 5 3 4 5 4 4 3 3 3 4 3 3 4 5 5 5 4 4 4 4 5 6 5 4 4 2 1 2 4 5 4 3 2 2 2
8 7 8 7 5 5 6 6 4 4 5 5 5 4 4 4 4 4 4 3 3 3 3 3 3 2 3 3 6 7 6 6 4 2 3 3 4 4 3 4 4 3 2
7 7 8 7 5 4 5 5 4 5 6 5 4 3 4 5 5 4 3 3 3 3 3 3 3 2 2 2 2 2 3 5 4 3 3 4 5 4 4 4 3 2 2
6 6 7 7 5 5 4 4 4 5 6 5 4 4 4 4 5 5 4 3 2 3 4 3 3 3 2 1 2 3 2 2 3 3 3 4 3 4 3 3 3 3 3
7 7 7 6 5 5 4 3 4 5 5 4 4 3 3 3 4 4 5 9 7 8 7 6 4 3 3 4 6 6 6 6 6 5 3 2 2 2 2 2 2 3 2
Wind_Direction
170 163 160 159 156 156 156 158 161 169 155 139 138 143 169 179 185 190 178 169 171 163 156 168 168 156 157 183 184 134 360 315 310 38 350 337 325 230 208 191 179 189 199
165 167 165 165 165 166 165 163 169 171 169 166 166 170 174 184 188 194 178 180 180 180 176 175 182 176 163 175 181 130 74 310 94 130 75 356 349 343 282 189 181 190 192
174 173 173 174 172 172 173 175 177 173 175 169 151 143 114 100 139 174 206 206 188 187 184 187 190 187 177 196 217 195 165 252 301 150 145 146 241 304 334 300 217 203 202
177 176 175 177 179 179 175 172 174 175 178 166 159 166 178 197 204 198 203 215 206 197 193 196 193 189 187 199 222 210 183 160 287 309 194 184 175 169 308 329 319 259 214
181 182 183 182 181 178 176 177 175 179 181 177 177 179 191 199 203 194 195 213 222 212 204 198 191 194 193 201 214 205 185 169 184 242 275 260 192 168 168 259 310 346 325
183 184 183 176 178 177 178 179 178 186 187 185 184 186 193 193 192 201 198 209 218 230 226 207 195 194 197 204 209 203 198 204 198 223 230 183 189 209 179 205 243 276 316
178 175 175 175 177 179 182 182 182 189 190 189 191 195 195 189 192 199 199 201 209 221 235 220 202 199 205 203 201 192 204 197 190 209 239 230 224 200 176 172 201 218 273
178 182 182 180 181 181 180 181 185 189 188 190 196 195 190 189 196 197 192 199 206 216 218 211 203 201 204 208 190 186 203 185 195 246 259 290 297 234 187 179 166 170 327
181 185 185 181 182 182 183 183 184 185 187 188 186 185 183 188 196 194 190 195 202 208 205 201 197 198 197 196 171 164 194 154 163 232 277 271 293 303 243 173 160 163 188
181 183 184 183 183 181 182 181 179 182 183 185 187 191 192 194 192 184 191 194 196 197 191 200 199 195 195 190 163 149 163 133 184 99 36 335 299 302 326 184 161 153 163
170 171 171 173 169 165 168 170 174 172 175 182 185 185 189 194 191 192 199 198 198 191 191 188 189 187 183 177 154 156 161 157 12 11 32 337 332 357 5 36 67 93 131
133 143 143 137 145 154 154 155 161 165 174 176 175 180 183 188 191 195 199 191 191 190 188 174 168 172 165 151 144 143 147 147 146 4 26 351 15 25 19 42 52 66 118
95 99 110 122 136 143 139 143 158 163 165 161 164 168 171 178 190 193 192 180 171 169 165 153 151 150 148 142 144 147 140 142 143 110 81 14 53 31 21 42 51 48 69
114 108 107 114 119 120 127 138 149 151 151 151 151 158 170 173 179 175 160 147 145 143 143 140 145 146 144 135 137 136 129 119 110 94 94 80 84 83 56 57 63 81 84
115 113 114 124 127 125 127 136 140 137 148 146 150 161 161 149 139 133 128 126 125 131 123 110 116 133 138 135 132 122 116 108 92 72 63 66 72 70 80 93 100 98 99
133 126 128 129 130 138 135 134 133 140 142 141 150 145 138 134 135 135 127 121 115 110 101 92 95 106 118 117 122 126 117 104 101 90 74 74 64 65 71 77 84 99 117
141 139 138 137 136 140 141 143 141 132 126 127 128 131 141 140 142 139 126 127 125 114 106 102 97 94 80 99 122 121 115 109 113 113 94 71 61 63 73 68 62 53 58
135 135 134 128 124 122 118 119 112 110 110 105 102 107 117 125 121 120 127 131 120 116 112 105 104 96 69 83 104 106 102 97 88 96 99 92 64 59 88 82 67 51 37
136 130 124 119 110 106 109 107 107 108 106 109 109 103 111 116 118 129 132 122 119 110 99 92 90 87 65 64 89 105 98 90 72 69 70 87 87 66 88 92 83 57 25
117 113 108 101 98 99 101 98 98 100 105 110 102 101 115 124 130 131 122 113 111 108 103 86 76 78 68 62 85 104 107 97 82 60 50 60 77 82 93 107 107 94 10
115 110 105 101 103 108 104 100 96 99 110 99 88 80 84 106 117 113 112 117 114 110 101 91 73 67 61 60 75 92 107 114 101 80 56 42 62 71 73 98 120 164 164
115 114 110 103 96 97 103 99 97 98 90 84 80 74 67 77 91 100 99 105 113 111 106 94 76 57 56 54 61 72 82 99 106 97 70 52 60 57 51 57 67 89 85
122 115 112 105 93 88 100 105 99 95 91 82 74 69 67 65 73 91 102 102 103 108 112 109 100 77 56 49 61 69 72 77 87 86 80 65 56 46 40 40 51 63 71
118 116 112 108 99 90 90 102 101 100 96 93 85 78 79 72 65 70 80 93 100 110 110 115 115 99 76 64 68 72 76 75 75 68 62 62 57 50 42 32 35 45 63
116 118 119 117 113 103 94 94 104 109 103 100 97 91 87 87 77 70 61 75 75 119 128 130 133 130 123 219 140 126 109 101 94 84 57 47 43 38 33 31 28 29 40
123 121 118 118 114 107 99 93 103 115 116 109 102 101 101 96 96 95 71 51 65 74 83 97 114 103 113 117 110 100 90 86 95 86 70 54 46 38 24 27 21 22 25